Year,Month,Day,Hour,Minute,Value (Times are PST for windspeed in km/hr)
2010,11,21,00,00,0.00
2010,11,21,00,01,0.00
2010,11,21,00,02,0.00
2010,11,21,00,03,0.60
2010,11,21,00,04,1.00
2010,11,21,00,05,0.00
2010,11,21,00,06,0.00
2010,11,21,00,07,0.00
2010,11,21,00,08,1.50
2010,11,21,00,09,0.20
2010,11,21,00,10,0.70
2010,11,21,00,11,0.00
2010,11,21,00,12,0.00
2010,11,21,00,13,0.10
2010,11,21,00,14,0.00
2010,11,21,00,15,0.00
2010,11,21,00,16,0.50
2010,11,21,00,17,0.30
2010,11,21,00,18,0.00
2010,11,21,00,19,0.00
2010,11,21,00,20,0.00
2010,11,21,00,21,0.00
2010,11,21,00,22,0.90
2010,11,21,00,23,0.10
2010,11,21,00,24,0.60
2010,11,21,00,25,0.00
2010,11,21,00,26,0.00
2010,11,21,00,27,0.00
2010,11,21,00,28,0.00
2010,11,21,00,29,0.00
2010,11,21,00,30,0.20
2010,11,21,00,31,1.10
2010,11,21,00,32,0.50
2010,11,21,00,33,0.00
2010,11,21,00,34,0.00
2010,11,21,00,35,0.70
2010,11,21,00,36,0.00
2010,11,21,00,37,0.00
2010,11,21,00,38,0.00
2010,11,21,00,39,0.00
2010,11,21,00,40,0.00
2010,11,21,00,41,0.60
2010,11,21,00,42,0.00
2010,11,21,00,43,0.00
2010,11,21,00,44,0.00
2010,11,21,00,45,0.00
2010,11,21,00,46,1.00
2010,11,21,00,47,1.00
2010,11,21,00,48,2.00
2010,11,21,00,49,0.20
2010,11,21,00,50,0.00
2010,11,21,00,51,0.00
2010,11,21,00,52,0.00
2010,11,21,00,53,0.00
2010,11,21,00,54,0.00
2010,11,21,00,55,0.10
2010,11,21,00,56,0.20
2010,11,21,00,57,0.00
2010,11,21,00,58,0.00
2010,11,21,00,59,0.60
2010,11,21,01,00,0.10
2010,11,21,01,01,0.00
2010,11,21,01,02,0.00
2010,11,21,01,03,1.00
2010,11,21,01,04,1.50
2010,11,21,01,05,0.30
2010,11,21,01,06,1.40
2010,11,21,01,07,0.00
2010,11,21,01,08,0.00
2010,11,21,01,09,1.30
2010,11,21,01,10,1.30
2010,11,21,01,11,0.80
2010,11,21,01,12,0.00
2010,11,21,01,13,0.30
2010,11,21,01,14,0.40
2010,11,21,01,15,0.00
2010,11,21,01,16,0.00
2010,11,21,01,17,0.00
2010,11,21,01,18,0.30
2010,11,21,01,19,0.00
2010,11,21,01,20,0.00
2010,11,21,01,21,0.00
2010,11,21,01,22,0.60
2010,11,21,01,23,0.00
2010,11,21,01,24,0.00
2010,11,21,01,25,0.00
2010,11,21,01,26,0.00
2010,11,21,01,27,0.30
2010,11,21,01,28,0.00
2010,11,21,01,29,0.00
2010,11,21,01,30,0.60
2010,11,21,01,31,0.00
2010,11,21,01,32,0.00
2010,11,21,01,33,0.00
2010,11,21,01,34,0.00
2010,11,21,01,35,0.00
2010,11,21,01,36,0.00
2010,11,21,01,37,0.00
2010,11,21,01,38,0.00
2010,11,21,01,39,0.00
2010,11,21,01,40,0.00
2010,11,21,01,41,0.00
2010,11,21,01,42,0.00
2010,11,21,01,43,0.00
2010,11,21,01,44,0.00
2010,11,21,01,45,0.00
2010,11,21,01,46,0.00
2010,11,21,01,47,0.00
2010,11,21,01,48,0.00
2010,11,21,01,49,0.00
2010,11,21,01,50,0.00
2010,11,21,01,51,0.00
2010,11,21,01,52,0.00
2010,11,21,01,53,0.70
2010,11,21,01,54,0.00
2010,11,21,01,55,0.00
2010,11,21,01,56,0.00
2010,11,21,01,57,0.00
2010,11,21,01,58,0.00
2010,11,21,01,59,0.00
2010,11,21,02,00,0.00
2010,11,21,02,01,0.00
2010,11,21,02,02,0.90
2010,11,21,02,03,1.70
2010,11,21,02,04,0.10
2010,11,21,02,05,0.00
2010,11,21,02,06,0.00
2010,11,21,02,07,0.00
2010,11,21,02,08,0.00
2010,11,21,02,09,0.00
2010,11,21,02,10,0.00
2010,11,21,02,11,0.00
2010,11,21,02,12,0.00
2010,11,21,02,13,0.00
2010,11,21,02,14,1.40
2010,11,21,02,15,0.10
2010,11,21,02,16,0.00
2010,11,21,02,17,0.00
2010,11,21,02,18,0.00
2010,11,21,02,19,0.00
2010,11,21,02,20,0.00
2010,11,21,02,21,0.00
2010,11,21,02,22,0.60
2010,11,21,02,23,0.00
2010,11,21,02,24,0.00
2010,11,21,02,25,0.00
2010,11,21,02,26,0.00
2010,11,21,02,27,0.00
2010,11,21,02,28,0.00
2010,11,21,02,29,0.00
2010,11,21,02,30,0.00
2010,11,21,02,31,0.00
2010,11,21,02,32,0.00
2010,11,21,02,33,0.00
2010,11,21,02,34,0.00
2010,11,21,02,35,0.00
2010,11,21,02,36,0.00
2010,11,21,02,37,2.10
2010,11,21,02,38,0.40
2010,11,21,02,39,0.00
2010,11,21,02,40,0.00
2010,11,21,02,41,0.00
2010,11,21,02,42,0.00
2010,11,21,02,43,0.00
2010,11,21,02,44,0.00
2010,11,21,02,45,0.00
2010,11,21,02,46,0.00
2010,11,21,02,47,0.00
2010,11,21,02,48,0.00
2010,11,21,02,49,0.00
2010,11,21,02,50,0.00
2010,11,21,02,51,0.00
2010,11,21,02,52,0.00
2010,11,21,02,53,0.00
2010,11,21,02,54,0.00
2010,11,21,02,55,0.00
2010,11,21,02,56,0.00
2010,11,21,02,57,0.00
2010,11,21,02,58,0.00
2010,11,21,02,59,0.00
2010,11,21,03,00,0.00
2010,11,21,03,01,0.00
2010,11,21,03,02,0.00
2010,11,21,03,03,0.00
2010,11,21,03,04,0.00
2010,11,21,03,05,0.00
2010,11,21,03,06,0.20
2010,11,21,03,07,0.70
2010,11,21,03,08,0.00
2010,11,21,03,09,0.00
2010,11,21,03,10,0.00
2010,11,21,03,11,0.00
2010,11,21,03,12,1.00
2010,11,21,03,13,0.30
2010,11,21,03,14,0.00
2010,11,21,03,15,0.00
2010,11,21,03,16,0.00
2010,11,21,03,17,0.00
2010,11,21,03,18,0.00
2010,11,21,03,19,0.00
2010,11,21,03,20,0.00
2010,11,21,03,21,0.00
2010,11,21,03,22,0.00
2010,11,21,03,23,0.00
2010,11,21,03,24,0.00
2010,11,21,03,25,0.00
2010,11,21,03,26,0.00
2010,11,21,03,27,0.00
2010,11,21,03,28,0.00
2010,11,21,03,29,0.00
2010,11,21,03,30,0.00
2010,11,21,03,31,0.00
2010,11,21,03,32,0.00
2010,11,21,03,33,0.00
2010,11,21,03,34,0.00
2010,11,21,03,35,0.00
2010,11,21,03,36,0.00
2010,11,21,03,37,0.00
2010,11,21,03,38,0.00
2010,11,21,03,39,0.00
2010,11,21,03,40,0.00
2010,11,21,03,41,0.00
2010,11,21,03,42,0.00
2010,11,21,03,43,0.00
2010,11,21,03,44,0.00
2010,11,21,03,45,0.00
2010,11,21,03,46,0.00
2010,11,21,03,47,0.00
2010,11,21,03,48,0.00
2010,11,21,03,49,0.00
2010,11,21,03,50,0.00
2010,11,21,03,51,0.00
2010,11,21,03,52,0.00
2010,11,21,03,53,1.50
2010,11,21,03,54,0.00
2010,11,21,03,55,0.60
2010,11,21,03,56,0.40
2010,11,21,03,57,0.00
2010,11,21,03,58,2.90
2010,11,21,03,59,3.10
2010,11,21,04,00,0.30
2010,11,21,04,01,0.00
2010,11,21,04,02,0.80
2010,11,21,04,03,1.10
2010,11,21,04,04,3.30
2010,11,21,04,05,0.50
2010,11,21,04,06,1.40
2010,11,21,04,07,0.00
2010,11,21,04,08,1.00
2010,11,21,04,09,0.00
2010,11,21,04,10,0.00
2010,11,21,04,11,0.00
2010,11,21,04,12,0.00
2010,11,21,04,13,0.50
2010,11,21,04,14,0.30
2010,11,21,04,15,0.00
2010,11,21,04,16,0.70
2010,11,21,04,17,1.90
2010,11,21,04,18,0.30
2010,11,21,04,19,0.20
2010,11,21,04,20,1.20
2010,11,21,04,21,0.10
2010,11,21,04,22,0.00
2010,11,21,04,23,0.00
2010,11,21,04,24,1.10
2010,11,21,04,25,0.00
2010,11,21,04,26,0.00
2010,11,21,04,27,0.00
2010,11,21,04,28,0.00
2010,11,21,04,29,0.00
2010,11,21,04,30,1.80
2010,11,21,04,31,0.90
2010,11,21,04,32,0.60
2010,11,21,04,33,1.40
2010,11,21,04,34,0.00
2010,11,21,04,35,0.00
2010,11,21,04,36,0.00
2010,11,21,04,37,0.00
2010,11,21,04,38,0.00
2010,11,21,04,39,0.00
2010,11,21,04,40,0.30
2010,11,21,04,41,0.20
2010,11,21,04,42,0.40
2010,11,21,04,43,0.00
2010,11,21,04,44,0.00
2010,11,21,04,45,0.00
2010,11,21,04,46,0.70
2010,11,21,04,47,0.00
2010,11,21,04,48,0.00
2010,11,21,04,49,0.00
2010,11,21,04,50,1.20
2010,11,21,04,51,2.70
2010,11,21,04,52,0.20
2010,11,21,04,53,0.00
2010,11,21,04,54,0.00
2010,11,21,04,55,0.00
2010,11,21,04,56,0.90
2010,11,21,04,57,0.00
2010,11,21,04,58,0.00
2010,11,21,04,59,0.00
2010,11,21,05,00,0.00
2010,11,21,05,01,0.00
2010,11,21,05,02,0.00
2010,11,21,05,03,0.00
2010,11,21,05,04,0.00
2010,11,21,05,05,0.00
2010,11,21,05,06,3.00
2010,11,21,05,07,0.00
2010,11,21,05,08,1.40
2010,11,21,05,09,0.00
2010,11,21,05,10,2.60
2010,11,21,05,11,3.00
2010,11,21,05,12,2.20
2010,11,21,05,13,2.10
2010,11,21,05,14,0.80
2010,11,21,05,15,0.60
2010,11,21,05,16,2.80
2010,11,21,05,17,1.40
2010,11,21,05,18,0.90
2010,11,21,05,19,1.80
2010,11,21,05,20,3.80
2010,11,21,05,21,3.00
2010,11,21,05,22,0.50
2010,11,21,05,23,0.20
2010,11,21,05,24,0.20
2010,11,21,05,25,1.40
2010,11,21,05,26,0.10
2010,11,21,05,27,0.00
2010,11,21,05,28,0.60
2010,11,21,05,29,0.00
2010,11,21,05,30,0.00
2010,11,21,05,31,0.00
2010,11,21,05,32,2.80
2010,11,21,05,33,0.20
2010,11,21,05,34,0.00
2010,11,21,05,35,0.00
2010,11,21,05,36,0.00
2010,11,21,05,37,0.00
2010,11,21,05,38,0.00
2010,11,21,05,39,2.10
2010,11,21,05,40,0.80
2010,11,21,05,41,0.20
2010,11,21,05,42,1.40
2010,11,21,05,43,0.80
2010,11,21,05,44,3.50
2010,11,21,05,45,3.00
2010,11,21,05,46,1.50
2010,11,21,05,47,1.20
2010,11,21,05,48,1.40
2010,11,21,05,49,0.10
2010,11,21,05,50,0.90
2010,11,21,05,51,3.00
2010,11,21,05,52,4.90
2010,11,21,05,53,0.80
2010,11,21,05,54,2.00
2010,11,21,05,55,3.20
2010,11,21,05,56,3.20
2010,11,21,05,57,3.80
2010,11,21,05,58,3.20
2010,11,21,05,59,1.80
2010,11,21,06,00,1.80
2010,11,21,06,01,1.40
2010,11,21,06,02,2.00
2010,11,21,06,03,2.10
2010,11,21,06,04,3.60
2010,11,21,06,05,3.30
2010,11,21,06,06,1.60
2010,11,21,06,07,1.30
2010,11,21,06,08,1.60
2010,11,21,06,09,1.20
2010,11,21,06,10,0.80
2010,11,21,06,11,0.00
2010,11,21,06,12,0.00
2010,11,21,06,13,0.00
2010,11,21,06,14,0.00
2010,11,21,06,15,1.40
2010,11,21,06,16,0.50
2010,11,21,06,17,2.10
2010,11,21,06,18,1.40
2010,11,21,06,19,2.10
2010,11,21,06,20,1.80
2010,11,21,06,21,2.50
2010,11,21,06,22,1.00
2010,11,21,06,23,0.70
2010,11,21,06,24,3.30
2010,11,21,06,25,2.90
2010,11,21,06,26,3.50
2010,11,21,06,27,1.00
2010,11,21,06,28,0.30
2010,11,21,06,29,3.90
2010,11,21,06,30,2.30
2010,11,21,06,31,0.80
2010,11,21,06,32,2.10
2010,11,21,06,33,0.60
2010,11,21,06,34,0.00
2010,11,21,06,35,0.80
2010,11,21,06,36,2.10
2010,11,21,06,37,0.60
2010,11,21,06,38,0.50
2010,11,21,06,39,0.60
2010,11,21,06,40,0.00
2010,11,21,06,41,0.80
2010,11,21,06,42,3.10
2010,11,21,06,43,0.70
2010,11,21,06,44,0.00
2010,11,21,06,45,0.00
2010,11,21,06,46,0.00
2010,11,21,06,47,0.00
2010,11,21,06,48,0.00
2010,11,21,06,49,0.00
2010,11,21,06,50,0.00
2010,11,21,06,51,0.00
2010,11,21,06,52,0.20
2010,11,21,06,53,0.40
2010,11,21,06,54,0.00
2010,11,21,06,55,0.00
2010,11,21,06,56,0.00
2010,11,21,06,57,0.00
2010,11,21,06,58,1.20
2010,11,21,06,59,0.10
2010,11,21,07,00,0.00
2010,11,21,07,01,0.00
2010,11,21,07,02,0.90
2010,11,21,07,03,0.70
2010,11,21,07,04,0.60
2010,11,21,07,05,3.90
2010,11,21,07,06,4.50
2010,11,21,07,07,5.20
2010,11,21,07,08,3.70
2010,11,21,07,09,2.50
2010,11,21,07,10,2.60
2010,11,21,07,11,3.90
2010,11,21,07,12,1.10
2010,11,21,07,13,2.10
2010,11,21,07,14,2.70
2010,11,21,07,15,2.20
2010,11,21,07,16,0.20
2010,11,21,07,17,2.50
2010,11,21,07,18,3.10
2010,11,21,07,19,2.90
2010,11,21,07,20,5.30
2010,11,21,07,21,3.80
2010,11,21,07,22,2.40
2010,11,21,07,23,5.00
2010,11,21,07,24,2.50
2010,11,21,07,25,1.80
2010,11,21,07,26,1.60
2010,11,21,07,27,0.80
2010,11,21,07,28,0.00
2010,11,21,07,29,0.60
2010,11,21,07,30,3.50
2010,11,21,07,31,2.80
2010,11,21,07,32,3.60
2010,11,21,07,33,3.70
2010,11,21,07,34,5.20
2010,11,21,07,35,2.30
2010,11,21,07,36,2.40
2010,11,21,07,37,1.40
2010,11,21,07,38,3.50
2010,11,21,07,39,1.40
2010,11,21,07,40,0.80
2010,11,21,07,41,3.10
2010,11,21,07,42,7.50
2010,11,21,07,43,7.10
2010,11,21,07,44,7.10
2010,11,21,07,45,6.20
2010,11,21,07,46,4.70
2010,11,21,07,47,6.40
2010,11,21,07,48,5.70
2010,11,21,07,49,4.60
2010,11,21,07,50,7.50
2010,11,21,07,51,6.40
2010,11,21,07,52,1.90
2010,11,21,07,53,2.70
2010,11,21,07,54,5.00
2010,11,21,07,55,4.40
2010,11,21,07,56,1.50
2010,11,21,07,57,6.00
2010,11,21,07,58,4.70
2010,11,21,07,59,2.50
2010,11,21,08,00,2.60
2010,11,21,08,01,3.10
2010,11,21,08,02,4.70
2010,11,21,08,03,2.00
2010,11,21,08,04,2.70
2010,11,21,08,05,2.20
2010,11,21,08,06,3.80
2010,11,21,08,07,4.70
2010,11,21,08,08,6.70
2010,11,21,08,09,4.90
2010,11,21,08,10,4.10
2010,11,21,08,11,5.80
2010,11,21,08,12,5.60
2010,11,21,08,13,4.10
2010,11,21,08,14,5.00
2010,11,21,08,15,3.60
2010,11,21,08,16,4.90
2010,11,21,08,17,7.10
2010,11,21,08,18,4.90
2010,11,21,08,19,7.70
2010,11,21,08,20,2.90
2010,11,21,08,21,5.70
2010,11,21,08,22,4.30
2010,11,21,08,23,3.30
2010,11,21,08,24,4.60
2010,11,21,08,25,4.20
2010,11,21,08,26,5.60
2010,11,21,08,27,5.60
2010,11,21,08,28,6.10
2010,11,21,08,29,6.30
2010,11,21,08,30,4.40
2010,11,21,08,31,4.40
2010,11,21,08,32,3.10
2010,11,21,08,33,3.00
2010,11,21,08,34,6.40
2010,11,21,08,35,7.90
2010,11,21,08,36,4.60
2010,11,21,08,37,2.20
2010,11,21,08,38,2.80
2010,11,21,08,39,7.90
2010,11,21,08,40,4.00
2010,11,21,08,41,2.70
2010,11,21,08,42,3.50
2010,11,21,08,43,5.00
2010,11,21,08,44,4.40
2010,11,21,08,45,4.50
2010,11,21,08,46,6.80
2010,11,21,08,47,4.50
2010,11,21,08,48,5.70
2010,11,21,08,49,2.20
2010,11,21,08,50,3.20
2010,11,21,08,51,1.60
2010,11,21,08,52,2.50
2010,11,21,08,53,4.00
2010,11,21,08,54,8.40
2010,11,21,08,55,8.30
2010,11,21,08,56,10.10
2010,11,21,08,57,10.70
2010,11,21,08,58,8.50
2010,11,21,08,59,8.70
2010,11,21,09,00,6.00
2010,11,21,09,01,7.00
2010,11,21,09,02,6.90
2010,11,21,09,03,4.60
2010,11,21,09,04,5.40
2010,11,21,09,05,4.70
2010,11,21,09,06,4.80
2010,11,21,09,07,5.50
2010,11,21,09,08,9.50
2010,11,21,09,09,8.10
2010,11,21,09,10,7.60
2010,11,21,09,11,7.70
2010,11,21,09,12,10.70
2010,11,21,09,13,6.80
2010,11,21,09,14,6.40
2010,11,21,09,15,5.60
2010,11,21,09,16,6.70
2010,11,21,09,17,8.50
2010,11,21,09,18,11.60
2010,11,21,09,19,11.80
2010,11,21,09,20,11.40
2010,11,21,09,21,11.00
2010,11,21,09,22,6.80
2010,11,21,09,23,7.10
2010,11,21,09,24,7.70
2010,11,21,09,25,7.80
2010,11,21,09,26,4.10
2010,11,21,09,27,4.90
2010,11,21,09,28,8.90
2010,11,21,09,29,10.10
2010,11,21,09,30,5.50
2010,11,21,09,31,9.30
2010,11,21,09,32,5.40
2010,11,21,09,33,3.70
2010,11,21,09,34,7.40
2010,11,21,09,35,14.10
2010,11,21,09,36,12.30
2010,11,21,09,37,10.80
2010,11,21,09,38,8.50
2010,11,21,09,39,8.20
2010,11,21,09,40,9.60
2010,11,21,09,41,9.40
2010,11,21,09,42,5.80
2010,11,21,09,43,9.10
2010,11,21,09,44,9.40
2010,11,21,09,45,7.90
2010,11,21,09,46,14.40
2010,11,21,09,47,8.50
2010,11,21,09,48,7.30
2010,11,21,09,49,5.50
2010,11,21,09,50,4.50
2010,11,21,09,51,11.60
2010,11,21,09,52,13.40
2010,11,21,09,53,9.90
2010,11,21,09,54,11.80
2010,11,21,09,55,13.40
2010,11,21,09,56,12.50
2010,11,21,09,57,11.90
2010,11,21,09,58,9.50
2010,11,21,09,59,9.70
2010,11,21,10,00,12.30
2010,11,21,10,01,17.10
2010,11,21,10,02,11.20
2010,11,21,10,03,9.40
2010,11,21,10,04,12.80
2010,11,21,10,05,19.00
2010,11,21,10,06,18.50
2010,11,21,10,07,9.50
2010,11,21,10,08,11.00
2010,11,21,10,09,8.40
2010,11,21,10,10,12.30
2010,11,21,10,11,12.40
2010,11,21,10,12,13.20
2010,11,21,10,13,12.80
2010,11,21,10,14,10.30
2010,11,21,10,15,15.20
2010,11,21,10,16,15.50
2010,11,21,10,17,15.90
2010,11,21,10,18,9.80
2010,11,21,10,19,8.80
2010,11,21,10,20,8.10
2010,11,21,10,21,7.10
2010,11,21,10,22,11.80
2010,11,21,10,23,10.80
2010,11,21,10,24,10.30
2010,11,21,10,25,17.20
2010,11,21,10,26,15.20
2010,11,21,10,27,17.70
2010,11,21,10,28,10.80
2010,11,21,10,29,10.50
2010,11,21,10,30,7.70
2010,11,21,10,31,18.20
2010,11,21,10,32,16.20
2010,11,21,10,33,16.00
2010,11,21,10,34,16.00
2010,11,21,10,35,12.60
2010,11,21,10,36,13.90
2010,11,21,10,37,11.70
2010,11,21,10,38,9.40
2010,11,21,10,39,10.50
2010,11,21,10,40,10.80
2010,11,21,10,41,11.40
2010,11,21,10,42,18.30
2010,11,21,10,43,17.30
2010,11,21,10,44,11.90
2010,11,21,10,45,11.30
2010,11,21,10,46,10.90
2010,11,21,10,47,14.30
2010,11,21,10,48,21.10
2010,11,21,10,49,15.40
2010,11,21,10,50,16.90
2010,11,21,10,51,15.20
2010,11,21,10,52,9.00
2010,11,21,10,53,7.80
2010,11,21,10,54,10.00
2010,11,21,10,55,19.10
2010,11,21,10,56,16.50
2010,11,21,10,57,16.10
2010,11,21,10,58,14.40
2010,11,21,10,59,14.40
2010,11,21,11,00,19.60
2010,11,21,11,01,19.50
2010,11,21,11,02,16.90
2010,11,21,11,03,15.90
2010,11,21,11,04,14.30
2010,11,21,11,05,10.70
2010,11,21,11,06,11.50
2010,11,21,11,07,13.00
2010,11,21,11,08,20.20
2010,11,21,11,09,18.50
2010,11,21,11,10,15.60
2010,11,21,11,11,21.40
2010,11,21,11,12,12.50
2010,11,21,11,13,12.40
2010,11,21,11,14,15.80
2010,11,21,11,15,18.80
2010,11,21,11,16,12.50
2010,11,21,11,17,12.70
2010,11,21,11,18,11.20
2010,11,21,11,19,15.50
2010,11,21,11,20,15.70
2010,11,21,11,21,18.60
2010,11,21,11,22,17.30
2010,11,21,11,23,17.90
2010,11,21,11,24,23.10
2010,11,21,11,25,19.10
2010,11,21,11,26,15.20
2010,11,21,11,27,17.60
2010,11,21,11,28,16.80
2010,11,21,11,29,16.70
2010,11,21,11,30,17.70
2010,11,21,11,31,11.20
2010,11,21,11,32,19.70
2010,11,21,11,33,19.40
2010,11,21,11,34,17.10
2010,11,21,11,35,12.60
2010,11,21,11,36,13.60
2010,11,21,11,37,10.90
2010,11,21,11,38,9.60
2010,11,21,11,39,12.10
2010,11,21,11,40,11.10
2010,11,21,11,41,9.60
2010,11,21,11,42,5.70
2010,11,21,11,43,3.40
2010,11,21,11,44,5.40
2010,11,21,11,45,7.60
2010,11,21,11,46,12.90
2010,11,21,11,47,13.70
2010,11,21,11,48,16.90
2010,11,21,11,49,11.40
2010,11,21,11,50,14.40
2010,11,21,11,51,15.80
2010,11,21,11,52,16.70
2010,11,21,11,53,14.60
2010,11,21,11,54,13.30
2010,11,21,11,55,14.40
2010,11,21,11,56,9.70
2010,11,21,11,57,12.70
2010,11,21,11,58,18.30
2010,11,21,11,59,12.40
2010,11,21,12,00,13.20
2010,11,21,12,01,11.90
2010,11,21,12,02,9.30
2010,11,21,12,03,11.70
2010,11,21,12,04,14.90
2010,11,21,12,05,8.50
2010,11,21,12,06,8.70
2010,11,21,12,07,12.40
2010,11,21,12,08,10.50
2010,11,21,12,09,13.00
2010,11,21,12,10,13.90
2010,11,21,12,11,17.70
2010,11,21,12,12,18.60
2010,11,21,12,13,19.20
2010,11,21,12,14,13.50
2010,11,21,12,15,12.80
2010,11,21,12,16,21.50
2010,11,21,12,17,16.00
2010,11,21,12,18,11.70
2010,11,21,12,19,13.60
2010,11,21,12,20,8.70
2010,11,21,12,21,11.40
2010,11,21,12,22,19.10
2010,11,21,12,23,16.40
2010,11,21,12,24,12.90
2010,11,21,12,25,15.40
2010,11,21,12,26,16.40
2010,11,21,12,27,14.10
2010,11,21,12,28,7.90
2010,11,21,12,29,7.70
2010,11,21,12,30,7.40
2010,11,21,12,31,11.00
2010,11,21,12,32,11.80
2010,11,21,12,33,5.10
2010,11,21,12,34,6.20
2010,11,21,12,35,7.60
2010,11,21,12,36,9.40
2010,11,21,12,37,7.00
2010,11,21,12,38,7.90
2010,11,21,12,39,13.10
2010,11,21,12,40,9.70
2010,11,21,12,41,6.40
2010,11,21,12,42,8.20
2010,11,21,12,43,13.00
2010,11,21,12,44,16.30
2010,11,21,12,45,10.90
2010,11,21,12,46,15.80
2010,11,21,12,47,15.60
2010,11,21,12,48,10.30
2010,11,21,12,49,17.60
2010,11,21,12,50,15.80
2010,11,21,12,51,11.20
2010,11,21,12,52,10.80
2010,11,21,12,53,6.80
2010,11,21,12,54,8.40
2010,11,21,12,55,10.20
2010,11,21,12,56,15.70
2010,11,21,12,57,11.70
2010,11,21,12,58,11.80
2010,11,21,12,59,15.10
2010,11,21,13,00,15.60
2010,11,21,13,01,8.20
2010,11,21,13,02,6.80
2010,11,21,13,03,11.70
2010,11,21,13,04,12.70
2010,11,21,13,05,13.00
2010,11,21,13,06,9.10
2010,11,21,13,07,8.70
2010,11,21,13,08,12.90
2010,11,21,13,09,16.10
2010,11,21,13,10,12.50
2010,11,21,13,11,12.20
2010,11,21,13,12,8.30
2010,11,21,13,13,12.30
2010,11,21,13,14,12.30
2010,11,21,13,15,16.90
2010,11,21,13,16,14.70
2010,11,21,13,17,15.50
2010,11,21,13,18,11.80
2010,11,21,13,19,16.90
2010,11,21,13,20,13.90
2010,11,21,13,21,10.80
2010,11,21,13,22,9.70
2010,11,21,13,23,19.80
2010,11,21,13,24,19.90
2010,11,21,13,25,18.10
2010,11,21,13,26,16.90
2010,11,21,13,27,17.60
2010,11,21,13,28,17.90
2010,11,21,13,29,16.20
2010,11,21,13,30,10.70
2010,11,21,13,31,10.30
2010,11,21,13,32,10.90
2010,11,21,13,33,14.90
2010,11,21,13,34,13.50
2010,11,21,13,35,7.50
2010,11,21,13,36,8.90
2010,11,21,13,37,11.00
2010,11,21,13,38,14.70
2010,11,21,13,39,10.10
2010,11,21,13,40,8.70
2010,11,21,13,41,6.10
2010,11,21,13,42,8.90
2010,11,21,13,43,9.40
2010,11,21,13,44,9.40
2010,11,21,13,45,12.00
2010,11,21,13,46,9.50
2010,11,21,13,47,10.60
2010,11,21,13,48,19.70
2010,11,21,13,49,14.60
2010,11,21,13,50,17.80
2010,11,21,13,51,17.40
2010,11,21,13,52,14.40
2010,11,21,13,53,13.20
2010,11,21,13,54,11.70
2010,11,21,13,55,13.60
2010,11,21,13,56,18.70
2010,11,21,13,57,15.90
2010,11,21,13,58,16.90
2010,11,21,13,59,10.30
2010,11,21,14,00,8.90
2010,11,21,14,01,13.30
2010,11,21,14,02,12.20
2010,11,21,14,03,18.00
2010,11,21,14,04,15.10
2010,11,21,14,05,13.00
2010,11,21,14,06,14.30
2010,11,21,14,07,13.80
2010,11,21,14,08,11.40
2010,11,21,14,09,9.70
2010,11,21,14,10,8.80
2010,11,21,14,11,9.20
2010,11,21,14,12,8.10
2010,11,21,14,13,8.90
2010,11,21,14,14,9.70
2010,11,21,14,15,8.80
2010,11,21,14,16,10.50
2010,11,21,14,17,9.40
2010,11,21,14,18,14.90
2010,11,21,14,19,16.70
2010,11,21,14,20,15.30
2010,11,21,14,21,13.90
2010,11,21,14,22,11.20
2010,11,21,14,23,12.50
2010,11,21,14,24,11.40
2010,11,21,14,25,12.40
2010,11,21,14,26,12.60
2010,11,21,14,27,10.60
2010,11,21,14,28,12.20
2010,11,21,14,29,12.10
2010,11,21,14,30,13.70
2010,11,21,14,31,9.30
2010,11,21,14,32,14.20
2010,11,21,14,33,14.10
2010,11,21,14,34,13.10
2010,11,21,14,35,17.50
2010,11,21,14,36,15.70
2010,11,21,14,37,16.40
2010,11,21,14,38,10.60
2010,11,21,14,39,15.20
2010,11,21,14,40,15.80
2010,11,21,14,41,15.90
2010,11,21,14,42,13.40
2010,11,21,14,43,14.20
2010,11,21,14,44,13.00
2010,11,21,14,45,15.10
2010,11,21,14,46,14.70
2010,11,21,14,47,8.40
2010,11,21,14,48,10.20
2010,11,21,14,49,11.60
2010,11,21,14,50,15.00
2010,11,21,14,51,7.60
2010,11,21,14,52,10.00
2010,11,21,14,53,8.40
2010,11,21,14,54,11.70
2010,11,21,14,55,15.90
2010,11,21,14,56,13.40
2010,11,21,14,57,11.30
2010,11,21,14,58,12.00
2010,11,21,14,59,15.80
2010,11,21,15,00,14.00
2010,11,21,15,01,11.80
2010,11,21,15,02,7.90
2010,11,21,15,03,14.40
2010,11,21,15,04,13.70
2010,11,21,15,05,10.90
2010,11,21,15,06,8.60
2010,11,21,15,07,10.30
2010,11,21,15,08,16.60
2010,11,21,15,09,14.70
2010,11,21,15,10,10.20
2010,11,21,15,11,16.80
2010,11,21,15,12,10.20
2010,11,21,15,13,15.00
2010,11,21,15,14,12.50
2010,11,21,15,15,12.40
2010,11,21,15,16,13.40
2010,11,21,15,17,10.90
2010,11,21,15,18,11.20
2010,11,21,15,19,14.60
2010,11,21,15,20,13.90
2010,11,21,15,21,10.70
2010,11,21,15,22,10.30
2010,11,21,15,23,15.10
2010,11,21,15,24,11.90
2010,11,21,15,25,15.00
2010,11,21,15,26,17.70
2010,11,21,15,27,10.80
2010,11,21,15,28,10.90
2010,11,21,15,29,13.80
2010,11,21,15,30,15.30
2010,11,21,15,31,14.10
2010,11,21,15,32,8.00
2010,11,21,15,33,10.60
2010,11,21,15,34,10.50
2010,11,21,15,35,11.90
2010,11,21,15,36,12.70
2010,11,21,15,37,11.70
2010,11,21,15,38,12.00
2010,11,21,15,39,13.20
2010,11,21,15,40,12.20
2010,11,21,15,41,12.10
2010,11,21,15,42,12.20
2010,11,21,15,43,10.90
2010,11,21,15,44,13.40
2010,11,21,15,45,14.90
2010,11,21,15,46,8.70
2010,11,21,15,47,11.20
2010,11,21,15,48,8.80
2010,11,21,15,49,8.40
2010,11,21,15,50,9.30
2010,11,21,15,51,8.30
2010,11,21,15,52,7.30
2010,11,21,15,53,10.00
2010,11,21,15,54,11.80
2010,11,21,15,55,11.00
2010,11,21,15,56,11.00
2010,11,21,15,57,7.80
2010,11,21,15,58,9.30
2010,11,21,15,59,10.50
2010,11,21,16,00,7.20
2010,11,21,16,01,9.00
2010,11,21,16,02,9.60
2010,11,21,16,03,9.70
2010,11,21,16,04,7.70
2010,11,21,16,05,12.20
2010,11,21,16,06,9.70
2010,11,21,16,07,9.50
2010,11,21,16,08,9.40
2010,11,21,16,09,13.00
2010,11,21,16,10,9.70
2010,11,21,16,11,8.80
2010,11,21,16,12,7.80
2010,11,21,16,13,10.50
2010,11,21,16,14,8.90
2010,11,21,16,15,8.90
2010,11,21,16,16,11.00
2010,11,21,16,17,8.80
2010,11,21,16,18,9.80
2010,11,21,16,19,8.10
2010,11,21,16,20,9.00
2010,11,21,16,21,14.30
2010,11,21,16,22,9.10
2010,11,21,16,23,6.50
2010,11,21,16,24,9.40
2010,11,21,16,25,10.10
2010,11,21,16,26,12.40
2010,11,21,16,27,8.20
2010,11,21,16,28,5.00
2010,11,21,16,29,7.40
2010,11,21,16,30,4.90
2010,11,21,16,31,4.40
2010,11,21,16,32,5.30
2010,11,21,16,33,6.80
2010,11,21,16,34,4.30
2010,11,21,16,35,3.40
2010,11,21,16,36,4.90
2010,11,21,16,37,7.80
2010,11,21,16,38,8.90
2010,11,21,16,39,6.30
2010,11,21,16,40,4.50
2010,11,21,16,41,4.70
2010,11,21,16,42,6.00
2010,11,21,16,43,8.20
2010,11,21,16,44,7.40
2010,11,21,16,45,5.50
2010,11,21,16,46,8.10
2010,11,21,16,47,7.20
2010,11,21,16,48,5.50
2010,11,21,16,49,6.90
2010,11,21,16,50,6.40
2010,11,21,16,51,7.80
2010,11,21,16,52,5.80
2010,11,21,16,53,7.50
2010,11,21,16,54,8.60
2010,11,21,16,55,6.80
2010,11,21,16,56,10.60
2010,11,21,16,57,8.40
2010,11,21,16,58,9.70
2010,11,21,16,59,8.40
2010,11,21,17,00,8.40
2010,11,21,17,01,9.70
2010,11,21,17,02,5.50
2010,11,21,17,03,8.30
2010,11,21,17,04,5.10
2010,11,21,17,05,7.90
2010,11,21,17,06,10.20
2010,11,21,17,07,7.50
2010,11,21,17,08,10.90
2010,11,21,17,09,5.40
2010,11,21,17,10,3.60
2010,11,21,17,11,9.10
2010,11,21,17,12,9.50
2010,11,21,17,13,7.20
2010,11,21,17,14,2.70
2010,11,21,17,15,3.10
2010,11,21,17,16,2.70
2010,11,21,17,17,2.30
2010,11,21,17,18,3.70
2010,11,21,17,19,3.70
2010,11,21,17,20,3.30
2010,11,21,17,21,4.90
2010,11,21,17,22,3.00
2010,11,21,17,23,2.20
2010,11,21,17,24,7.90
2010,11,21,17,25,6.30
2010,11,21,17,26,6.00
2010,11,21,17,27,12.20
2010,11,21,17,28,7.20
2010,11,21,17,29,4.60
2010,11,21,17,30,3.90
2010,11,21,17,31,4.60
2010,11,21,17,32,8.00
2010,11,21,17,33,4.60
2010,11,21,17,34,4.40
2010,11,21,17,35,3.10
2010,11,21,17,36,6.20
2010,11,21,17,37,8.50
2010,11,21,17,38,6.00
2010,11,21,17,39,4.90
2010,11,21,17,40,3.30
2010,11,21,17,41,3.40
2010,11,21,17,42,3.40
2010,11,21,17,43,4.70
2010,11,21,17,44,5.10
2010,11,21,17,45,3.60
2010,11,21,17,46,6.80
2010,11,21,17,47,4.90
2010,11,21,17,48,5.00
2010,11,21,17,49,3.40
2010,11,21,17,50,3.60
2010,11,21,17,51,1.40
2010,11,21,17,52,2.50